Muscatine, IA

3:40 PM CST on December 12, 2019 (GMT -0600)
Muscatine Municipal

Weather History for KMUT - October, 2019

Change the Weather History Date:

Friday, October 4, 2019

  Actual Average Record
Temperature  
Mean Temperature 52 °F -  
Max Temperature 62 °F 70 °F 140 °F (1997)
Min Temperature 41 °F 46 °F 28 °F (1989)
Degree Days  
Heating Degree Days 14    
Growing Degree Days 2 (Base 50)    
Moisture  
Dew Point 44 °F    
Average Humidity 76    
Maximum Humidity 100    
Minimum Humidity 52    
Precipitation  
Precipitation 0.00 in - - ()
Sea Level Pressure  
Sea Level Pressure 30.35 in    
Wind  
Wind Speed 6 mph (ENE)    
Max Wind Speed 13 mph    
Max Gust Speed 20 mph    
Visibility 10 miles    
Events      
Averages and records for this station are not official NWS values.
T = Trace of Precipitation, MM = Missing Value Source: NWS Daily Summary

Daily Weather History Graph

Daily Weather History Graph

Search for Another Location

Airport or City:

Astronomy

Oct. 04, 2019 Rise Set
Actual Time 7:04 AM CDT 6:41 PM CDT
Civil Twilight 6:36 AM CDT 7:09 PM CDT
Nautical Twilight 6:04 AM CDT 7:41 PM CDT
Astronomical Twilight 5:32 AM CDT 8:13 PM CDT
Moon 1:40 PM CDT (10/4) 11:07 PM CDT (10/4)
Length of Visible Light 12h 32m
Length of Day
11h 37m
Waxing Crescent, 40% of the Moon is Illuminated
Oct 4
Waxing Crescent
Oct 5
First Quarter
Oct 13
Full
Oct 21
Last Quarter
Oct 27
New

Hourly Weather History & Observations

Time (CDT) Temp. Windchill Dew Point Humidity Pressure Visibility Wind Dir Wind Speed Gust Speed Precip Events Conditions
12:15 AM 46.4 °F 44.3 °F 42.8 °F 87% 30.35 in 10.0 mi NNW 4.6 mph - N/A   Clear
12:35 AM 44.6 °F 41.4 °F 42.8 °F 93% 30.35 in 10.0 mi NNW 5.8 mph - N/A   Clear
12:55 AM 44.6 °F 41.4 °F 42.8 °F 93% 30.36 in 10.0 mi NW 5.8 mph - N/A   Clear
1:15 AM 44.6 °F 42.2 °F 42.8 °F 93% 30.36 in 10.0 mi NW 4.6 mph - N/A   Clear
1:35 AM 44.6 °F 41.4 °F 42.8 °F 93% 30.36 in 10.0 mi NNW 5.8 mph - N/A   Clear
1:55 AM 44.6 °F 41.4 °F 42.8 °F 93% 30.37 in 10.0 mi NNW 5.8 mph - N/A   Clear
2:15 AM 44.6 °F 42.2 °F 41.0 °F 87% 30.37 in 10.0 mi NNW 4.6 mph - N/A   Clear
2:35 AM 44.6 °F 42.2 °F 41.0 °F 87% 30.37 in 10.0 mi NNW 4.6 mph - N/A   Clear
2:55 AM 44.6 °F 40.2 °F 41.0 °F 87% 30.37 in 10.0 mi NNW 8.1 mph - N/A   Clear
3:15 AM 44.6 °F 40.7 °F 41.0 °F 87% 30.37 in 10.0 mi NNW 6.9 mph - N/A   Clear
3:35 AM 44.6 °F 41.4 °F 41.0 °F 87% 30.37 in 10.0 mi NNW 5.8 mph - N/A   Clear
3:55 AM 42.8 °F 40.1 °F 41.0 °F 93% 30.37 in 10.0 mi North 4.6 mph - N/A   Clear
4:15 AM 42.8 °F 40.1 °F 41.0 °F 93% 30.38 in 10.0 mi North 4.6 mph - N/A   Clear
4:35 AM 42.8 °F 38.6 °F 41.0 °F 93% 30.38 in 10.0 mi North 6.9 mph - N/A   Clear
4:55 AM 42.8 °F - 41.0 °F 93% 30.39 in 10.0 mi Calm Calm - N/A   Clear
5:15 AM 42.8 °F - 39.2 °F 87% 30.39 in 10.0 mi Calm Calm - N/A   Partly Cloudy
5:35 AM 42.8 °F - 41.0 °F 93% 30.39 in 10.0 mi Calm Calm - N/A   Partly Cloudy
5:55 AM 42.8 °F - 41.0 °F 93% 30.40 in 10.0 mi Calm Calm - N/A   Clear
6:15 AM 42.8 °F - 41.0 °F 93% 30.41 in 10.0 mi Calm Calm - N/A   Clear
6:35 AM 41.0 °F - 41.0 °F 100% 30.41 in 10.0 mi Calm Calm - N/A   Clear
6:55 AM 41.0 °F - 39.2 °F 93% 30.42 in 10.0 mi Calm Calm - N/A   Clear
7:15 AM 41.0 °F - 39.2 °F 93% 30.42 in 10.0 mi Calm Calm - N/A   Clear
7:35 AM 41.0 °F - 41.0 °F 100% 30.43 in 10.0 mi Calm Calm - N/A   Clear
7:55 AM 42.8 °F - 41.0 °F 93% 30.44 in 10.0 mi Calm Calm - N/A   Clear
8:15 AM 44.6 °F - 41.0 °F 87% 30.44 in 10.0 mi Calm Calm - N/A   Clear
8:35 AM 46.4 °F - 42.8 °F 87% 30.44 in 10.0 mi Calm Calm - N/A   Clear
8:55 AM 46.4 °F 42.9 °F 42.8 °F 87% 30.44 in 10.0 mi NNE 6.9 mph - N/A   Clear
9:15 AM 48.2 °F - 42.8 °F 82% 30.43 in 4.0 mi NE 10.4 mph - N/A   Haze
9:35 AM 50.0 °F - 42.8 °F 76% 30.43 in 10.0 mi ENE 11.5 mph - N/A   Clear
10:15 AM 51.8 °F - 44.6 °F 76% 30.43 in 10.0 mi NE 12.7 mph - N/A   Partly Cloudy
10:35 AM 51.8 °F - 44.6 °F 76% 30.42 in 10.0 mi NE 10.4 mph - N/A   Clear
10:55 AM 53.6 °F - 44.6 °F 72% 30.42 in 10.0 mi ENE 10.4 mph - N/A   Clear
11:15 AM 55.4 °F - 44.6 °F 67% 30.42 in 10.0 mi East 8.1 mph - N/A   Scattered Clouds
11:35 AM 55.4 °F - 44.6 °F 67% 30.41 in 10.0 mi East 9.2 mph - N/A   Mostly Cloudy
11:55 AM 55.4 °F - 46.4 °F 72% 30.41 in 10.0 mi NE 5.8 mph - N/A   Scattered Clouds
12:15 PM 57.2 °F - 46.4 °F 67% 30.41 in 10.0 mi ENE 9.2 mph - N/A   Partly Cloudy
12:35 PM 57.2 °F - 44.6 °F 63% 30.40 in 10.0 mi East 5.8 mph - N/A   Partly Cloudy
12:55 PM 59.0 °F - 46.4 °F 63% 30.39 in 10.0 mi Variable 3.5 mph - N/A   Partly Cloudy
1:15 PM 59.0 °F - 44.6 °F 59% 30.38 in 10.0 mi ENE 9.2 mph - N/A   Clear
1:35 PM 59.0 °F - 46.4 °F 63% 30.36 in 10.0 mi Variable 3.5 mph - N/A   Partly Cloudy
1:55 PM 60.8 °F - 44.6 °F 55% 30.35 in 10.0 mi Variable 5.8 mph 12.7 mph N/A   Partly Cloudy
2:15 PM 60.8 °F - 44.6 °F 55% 30.35 in 10.0 mi East 9.2 mph - N/A   Clear
2:35 PM 60.8 °F - 46.4 °F 59% 30.33 in 10.0 mi ENE 11.5 mph - N/A   Clear
2:55 PM 62.6 °F - 44.6 °F 52% 30.33 in 10.0 mi ENE 6.9 mph - N/A   Clear
3:15 PM 62.6 °F - 44.6 °F 52% 30.33 in 10.0 mi NE 5.8 mph 13.8 mph N/A   Clear
3:35 PM 62.6 °F - 46.4 °F 55% 30.32 in 10.0 mi East 8.1 mph - N/A   Clear
3:55 PM 62.6 °F - 46.4 °F 55% 30.31 in 10.0 mi ENE 9.2 mph - N/A   Partly Cloudy
4:15 PM 62.6 °F - 46.4 °F 55% 30.31 in 10.0 mi NE 11.5 mph - N/A   Partly Cloudy
4:35 PM 62.6 °F - 46.4 °F 55% 30.31 in 10.0 mi NE 10.4 mph - N/A   Clear
4:55 PM 62.6 °F - 46.4 °F 55% 30.30 in 10.0 mi ENE 12.7 mph - N/A   Clear
5:15 PM 62.6 °F - 46.4 °F 55% 30.30 in 10.0 mi ENE 11.5 mph - N/A   Clear
5:35 PM 62.6 °F - 44.6 °F 52% 30.29 in 10.0 mi East 9.2 mph - N/A   Clear
5:55 PM 60.8 °F - 44.6 °F 55% 30.29 in 10.0 mi East 6.9 mph - N/A   Clear
6:15 PM 60.8 °F - 46.4 °F 59% 30.29 in 10.0 mi East 4.6 mph - N/A   Clear
6:35 PM 60.8 °F - 46.4 °F 59% 30.28 in 10.0 mi East 6.9 mph - N/A   Clear
6:55 PM 59.0 °F - 48.2 °F 67% 30.28 in 10.0 mi East 6.9 mph - N/A   Clear
7:15 PM 59.0 °F - 48.2 °F 67% 30.28 in 10.0 mi East 6.9 mph - N/A   Clear
7:35 PM 57.2 °F - 48.2 °F 72% 30.28 in 10.0 mi East 6.9 mph - N/A   Clear
7:55 PM 57.2 °F - 48.2 °F 72% 30.27 in 10.0 mi East 8.1 mph - N/A   Clear
8:15 PM 57.2 °F - 48.2 °F 72% 30.27 in 10.0 mi East 8.1 mph - N/A   Clear
8:35 PM 57.2 °F - 48.2 °F 72% 30.28 in 10.0 mi East 6.9 mph - N/A   Clear
8:55 PM 57.2 °F - 48.2 °F 72% 30.28 in 10.0 mi East 6.9 mph - N/A   Clear
9:15 PM 57.2 °F - 48.2 °F 72% 30.28 in 10.0 mi East 6.9 mph - N/A   Clear
9:35 PM 55.4 °F - 48.2 °F 77% 30.27 in 10.0 mi East 6.9 mph - N/A   Clear
9:55 PM 55.4 °F - 50.0 °F 82% 30.26 in 10.0 mi ESE 10.4 mph - N/A   Clear
10:15 PM 55.4 °F - 50.0 °F 82% 30.26 in 10.0 mi ESE 11.5 mph 17.3 mph N/A   Clear
10:35 PM 55.4 °F - 48.2 °F 77% 30.24 in 10.0 mi East 11.5 mph 19.6 mph N/A   Clear
10:55 PM 55.4 °F - 48.2 °F 77% 30.25 in 10.0 mi ESE 10.4 mph 17.3 mph N/A   Clear
11:15 PM 55.4 °F - 48.2 °F 77% 30.24 in 10.0 mi East 11.5 mph 18.4 mph N/A   Clear
11:35 PM 55.4 °F - 48.2 °F 77% 30.25 in 10.0 mi ESE 6.9 mph 15.0 mph N/A   Partly Cloudy
11:55 PM 55.4 °F - 48.2 °F 77% 30.25 in 10.0 mi SE 6.9 mph 12.7 mph N/A   Mostly Cloudy